Location: R�o de Cab�
(42.2180°N, 1.3319°E)
Time: 09:30:48
(UTC+00:00)

Daily predictions for brighter satellites

Satellite Brightness Start Highest point End
(mag) Time Altitude Azimuth Time Altitude Azimuth Time Altitude Azimuth
Tsikada Rocket 4.1 19:45:55 10° S 19:52:07 88° E 19:58:18 10° N
Cosmos 407 Rocket 4.1 19:47:09 10° NNW 19:52:26 63° WSW 19:57:43 10° S
Cosmos 1833 Rocket 2.9 19:48:08 10° NNW 19:53:42 60° ENE 19:59:14 10° SE
STARLINK-1109 4.4 19:50:28 10° NW 19:54:29 45° NNE 19:58:28 10° ESE
STARLINK-1246 4.0 19:51:52 10° WSW 19:55:59 72° NW 20:00:09 10° NE
STARLINK-1107 4.4 19:53:11 10° WNW 19:57:09 45° SW 20:01:05 10° SSE
Meteor 1-18 Rocket 4.5 19:52:04 10° SSW 19:57:38 78° W 20:03:21 10° N
CZ-2C R/B 4.4 19:52:25 10° S 19:57:40 45° W 20:03:10 10° NNW
Cosmos 1420 Rocket 4.0 19:53:25 10° S 19:58:34 68° ESE 20:03:44 10° NNE
Cosmos 1452 Rocket 3.8 19:53:53 10° S 19:58:53 46° ESE 20:03:56 10° NNE
Cosmos 332 Rocket 4.5 19:54:51 10° SSE 19:59:15 34° ESE 20:03:41 10° NE
BREEZE-M DEB 3.5 19:57:58 10° S 19:59:20 15° SE 20:00:55 10° E
STARLINK-1091 4.3 19:55:24 10° NW 19:59:27 48° NNE 20:03:28 10° ESE
Cosmos 2082 Rocket 2.9 19:54:50 10° NNW 20:00:17 43° ENE 20:05:40 10° SE
STARLINK-1224 4.1 19:56:52 10° WSW 20:00:58 66° NW 20:05:06 10° NE
DMSP B5D2-2 4.1 19:57:05 10° NNE 20:02:24 78° ESE 20:07:39 10° S
STARLINK-1072 4.2 20:00:24 10° NW 20:04:28 52° NNE 20:08:31 10° ESE
Cosmos 1461 3.4 20:01:39 10° S 20:05:23 36° ESE 20:09:20 10° NE
STARLINK-1225 4.3 20:01:53 10° WSW 20:05:59 61° NNW 20:10:05 10° NE
Cosmos 1140 Rocket 4.0 20:01:34 10° NNW 20:06:44 63° WSW 20:11:52 10° S
Cosmos 1782 Rocket 3.9 20:02:23 10° NNW 20:06:52 72° W 20:11:18 10° S
SJ-6B 3.7 20:03:38 10° S 20:07:14 47° W 20:10:51 10° NNW
Iridium 51 4.1 20:03:23 10° S 20:07:14 75° E 20:10:52 10° N
Okean 3 3.6 20:03:47 10° S 20:07:59 58° E 20:12:14 10° NNE
MOS 1 Rocket 3.4 20:03:40 10° N 20:08:01 71° WNW 20:12:15 10° SSW
Cosmos 1544 3.2 20:04:53 10° NNW 20:08:30 76° W 20:12:05 10° S
STARLINK-1096 4.0 20:05:22 10° NW 20:09:28 56° NNE 20:13:32 10° ESE
ASTEX 1 4.1 20:05:02 10° S 20:09:49 57° W 20:14:42 10° NNW
STARLINK-1230 4.4 20:06:53 10° WSW 20:10:57 56° NNW 20:15:02 10° NE
ASTRO E2 4.5 20:11:05 10° SSW 20:13:31 16° S 20:15:41 11° SE
STARLINK-1079 3.9 20:10:20 10° NW 20:14:27 61° NNE 20:18:26 11° ESE
Cosmos 2221 Rocket 3.6 20:11:23 10° S 20:15:50 66° E 20:20:22 10° NNE
Meteor 2-9 Rocket 4.3 20:11:57 10° NNW 20:17:17 73° W 20:22:34 10° S
SL-4 R/B 1.1 20:14:58 10° NNW 20:18:01 86° WSW 20:20:30 12° SSE
NOSS 8 (F) 4.1 20:15:39 10° SSW 20:19:03 68° SE 20:22:05 10° NE
Meteor 1-13 Rocket 4.4 20:13:59 10° S 20:19:25 55° E 20:25:01 10° NNE
STARLINK-1116 3.8 20:15:18 10° NW 20:19:26 66° NE 20:23:13 12° ESE
Cosmos 2142 Rocket 4.5 20:19:49 10° N 20:25:59 73° E 20:32:09 10° SSE
STARLINK-1094 3.7 20:25:15 10° NW 20:29:24 78° NE 20:32:47 15° ESE
USA 245 3.9 20:27:56 15° ESE 20:29:38 24° ENE 20:31:52 10° NNE
Sich 1 Rocket 4.1 20:25:59 10° NNW 20:30:32 62° W 20:35:02 10° S
Cosmos 2278 Rocket 3.2 20:26:09 10° SW 20:31:40 51° WNW 20:37:13 10° NNE
TSX-5 4.5 20:26:03 10° SSW 20:31:56 63° ESE 20:36:28 10° NE
Resurs 01 Rocket 1.7 20:28:34 10° SSE 20:33:02 85° W 20:37:31 10° NNW
GPS 2-04 Rocket1 3.5 20:31:02 10° WSW 20:34:04 28° S 20:35:58 18° SE
STARLINK-1117 3.6 20:30:14 10° NW 20:34:23 85° NE 20:37:34 17° SE
Okean 1 Rocket 4.2 20:31:21 10° NNE 20:35:13 28° ENE 20:37:54 16° SE
Cosmos 1741 Rocket 4.2 20:30:31 10° NNW 20:35:41 58° ENE 20:39:49 16° SE
Okean 2 Rocket 3.1 20:31:38 10° N 20:36:04 88° WSW 20:40:26 10° S
MetOp-B 4.2 20:32:01 12° SSE 20:36:55 65° ENE 20:42:13 10° N
STARLINK-1078 3.6 20:35:12 10° NW 20:39:22 89° SW 20:42:21 18° SE
Meteor 1-12 Rocket 4.3 20:33:43 10° N 20:39:25 89° SW 20:45:08 10° S
SPOT 3 Rocket 4.5 20:38:35 10° S 20:43:30 45° W 20:48:27 10° NNW
Cosmos 371 Rocket 3.8 20:38:51 10° SSW 20:43:39 64° WNW 20:48:31 10° NNE
Cosmos 2279 Rocket 4.0 20:37:55 10° N 20:44:11 84° E 20:50:13 11° S
STARLINK-1108 3.6 20:40:11 10° NW 20:44:21 82° SW 20:47:08 20° SE
SL-4 R/B 3.4 20:41:31 10° S 20:45:10 23° SE 20:48:55 10° E
Cosmos 1850 Rocket 4.1 20:39:55 10° NNW 20:45:17 74° ENE 20:49:25 17° SSE
ATLAS 3B CENTAUR R/B 4.2 20:31:36 10° WSW 20:45:22 34° S 20:50:57 17° SE
Cosmos 1110 Rocket 4.2 20:40:53 10° S 20:45:49 47° ESE 20:50:46 10° NNE
Terra 3.5 20:44:22 13° ESE 20:47:07 21° ENE 20:50:36 10° NNE
Spot 2 Rocket 3.5 20:44:03 16° SSE 20:48:03 66° ENE 20:53:04 10° N
SPOT 1/Viking Rocket 4.0 20:45:17 17° SE 20:48:58 48° ENE 20:53:55 10° N
STARLINK-1071 3.6 20:45:10 10° NW 20:49:19 75° SW 20:51:55 22° SE
Abrixas rocket 3.0 20:46:58 10° NW 20:49:48 40° NNE 20:51:50 16° E
NOSS 8 (H) 4.1 20:46:54 10° SW 20:50:13 88° SE 20:53:15 10° NE
Cosmos 2151 Rocket 3.6 20:46:15 10° N 20:50:49 89° W 20:54:34 15° S
STARLINK-1110 3.7 20:48:58 10° WNW 20:53:05 70° SW 20:55:32 23° SE
STARLINK-1124 3.8 20:55:09 10° WNW 20:59:15 62° SW 21:01:29 25° SSE
Cosmos 1331 Rocket 4.0 20:57:31 10° S 21:02:34 60° ESE 21:07:40 10° NNE
Aureole 2 Rocket 2.3 21:00:23 10° SSW 21:03:31 68° WNW 21:06:31 10° NNE
STARLINK-1122 3.9 21:00:09 10° WNW 21:04:13 56° SW 21:06:15 27° SSE
deb Kosmos-1763 4.1 21:01:52 10° NNW 21:05:26 63° ENE 21:06:57 31° SE
Cosmos 1300 Rocket 4.4 21:01:17 10° NNW 21:05:34 47° W 21:09:36 11° SSW
Cosmos 1437 Rocket 3.3 21:04:42 10° SSW 21:08:26 57° WNW 21:12:12 10° N
STARLINK-1126 4.0 21:05:11 10° WNW 21:09:13 51° SW 21:11:06 28° SSE
Cosmos 1378 3.4 21:09:41 31° SE 21:10:59 46° E 21:14:34 10° NNE
STARLINK-1119 4.5 21:07:27 10° NW 21:11:27 44° NNE 21:14:04 19° E
STARLINK-1082 4.2 21:10:09 10° WNW 21:14:07 46° SW 21:15:48 29° SSE
Cosmos 304 Rocket 4.1 21:10:18 10° SSW 21:15:03 68° WNW 21:19:51 10° NNE
ISS -2.6 21:13:14 10° WNW 21:16:15 30° SW 21:17:02 27° SSW
STARLINK-1114 4.3 21:12:24 10° NW 21:16:25 47° NNE 21:18:49 22° E
Meteor 1-15 Rocket 4.3 21:12:00 10° N 21:17:58 89° W 21:21:57 22° S
STARLINK-1100 4.3 21:15:08 10° WNW 21:19:04 42° SW 21:20:34 29° S
Cosmos 1092 Rocket 4.2 21:15:30 23° SSE 21:19:06 51° E 21:25:02 10° NNE
Lacrosse 5 2.9 21:14:56 10° WNW 21:19:30 35° SW 21:22:07 21° S
NOSS 2-2 (D) 3.1 21:16:26 10° SW 21:19:59 78° NW 21:23:50 10° NNE
STARLINK-1130 (DARKSAT) 4.2 21:17:22 10° NW 21:21:25 51° NNE 21:23:37 24° E
Cosmos 1674 Rocket 4.3 21:19:19 10° SSW 21:23:33 52° W 21:27:53 10° N
STARLINK-1083 4.4 21:20:11 10° WNW 21:24:02 38° SW 21:25:23 29° S
CENTAUR R/B 4.1 21:16:42 10° NNW 21:24:06 40° NE 21:31:08 14° ESE
Cosmos 1378 Rocket 3.9 21:22:49 15° SSW 21:26:25 64° W 21:30:46 10° N
STARLINK-1084 4.1 21:22:20 10° NW 21:26:25 55° NNE 21:28:24 28° E
SL-27 R/B 4.0 21:25:53 10° N 21:28:49 23° ENE 21:29:28 22° E
STARLINK-1098 4.0 21:27:18 10° NW 21:31:25 59° NNE 21:33:11 31° E
Cosmos 1766 3.4 21:27:46 10° N 21:31:44 58° E 21:32:47 42° SE
IGS 5A 4.2 21:31:57 23° SSW 21:34:13 46° W 21:38:14 10° NNW
Cosmos 1943 Rocket 2.1 21:31:46 19° SSW 21:35:49 71° ESE 21:41:24 10° NNE
Cosmos 2297 4.5 21:30:30 10° SW 21:36:02 54° WNW 21:41:39 10° NNE
STARLINK-1123 3.8 21:32:15 10° NW 21:36:23 64° NNE 21:37:57 35° ESE
NOSS 3-4 (A) 4.1 21:36:32 29° SE 21:37:19 30° ESE 21:42:33 10° NE
NOSS 3-4 (C) 4.1 21:36:40 29° SE 21:37:25 29° ESE 21:42:38 10° NE
Cosmos 1900 4.5 21:33:55 10° NNW 21:38:58 69° ENE 21:41:01 36° SE
STARLINK-1097 3.7 21:37:15 10° NW 21:41:24 70° NE 21:42:45 40° ESE
Cosmos 2082 Rocket 3.7 21:39:19 10° NW 21:44:08 28° WSW 21:47:54 14° SSW
SeaSat 1 3.8 21:41:20 10° NE 21:44:35 22° E 21:44:35 22° E
Cosmos 1975 Rocket 3.0 21:44:36 43° SSE 21:45:55 69° E 21:50:19 10° NNE
STARLINK-1099 3.6 21:42:13 10° NW 21:46:23 76° NE 21:47:31 46° ESE
Cosmos 292 Rocket 4.0 21:48:20 42° SE 21:49:18 48° ESE 21:53:58 10° NNE
BREEZE-M DEB (TANK) 4.3 21:30:14 10° WSW 21:49:38 72° NNW 21:54:08 10° ENE
STARLINK-1104 3.6 21:47:11 10° NW 21:51:21 82° NE 21:52:18 52° ESE
Cosmos 2369 Rocket 2.1 21:49:04 29° S 21:52:00 69° ESE 21:57:38 10° NNE
SPOT 5 3.3 21:53:31 33° S 21:55:51 67° WSW 22:01:12 10° NNW
STARLINK-1144 3.5 21:52:10 10° NW 21:56:20 89° NE 21:57:05 59° SE
ATLAS CENTAUR R/B 3.2 21:59:35 20° E 21:59:35 20° E 22:01:26 10° ENE
STARLINK-1103 3.5 21:57:08 10° NW 22:01:18 84° SW 22:01:52 65° SE
ERS-1 Rocket 3.6 21:59:40 29° SSW 22:01:54 49° W 22:06:47 10° NNW
Cosmos 1025 Rocket 3.9 22:02:58 33° E 22:02:58 33° E 22:06:44 10° NNE
Okean 2 3.6 22:02:00 41° SSW 22:03:17 65° W 22:07:26 10° N
Cosmos 2026 Rocket 3.9 22:00:23 32° S 22:03:29 84° E 22:09:53 10° N
ATLAS 2AS CENTAUR R/B 3.1 22:00:30 26° S 22:05:07 58° ESE 22:12:54 10° NE
Cosmos 1656 Rocket 4.0 22:04:49 41° SE 22:05:42 44° ESE 22:10:59 10° NE
STARLINK-1101 3.4 22:02:07 10° NW 22:06:16 77° SW 22:06:38 70° SSE
BREEZE M DEB (TANK) 4.4 22:02:46 10° W 22:06:24 28° NNW 22:08:26 10° NE
Thor Agena Rocket 4.0 22:01:27 10° NNE 22:06:28 42° E 22:07:12 39° ESE
Meteor 1-22 Rocket 4.3 22:00:57 10° NNW 22:06:49 74° W 22:09:05 38° S
Cosmos 1553 Rocket 4.3 22:03:30 10° N 22:09:40 55° ENE 22:11:43 38° SE
APEX 4.3 22:06:47 31° SSW 22:10:06 74° ESE 22:15:40 10° NNE
Cosmos 1953 4.0 22:07:33 10° NNE 22:10:40 22° ENE 22:10:41 22° ENE
NOSS 3-2 (A) 4.1 22:03:24 10° NW 22:11:05 86° WSW 22:15:10 35° SSE
STARLINK-1102 3.5 22:07:07 10° WNW 22:11:15 71° SW 22:11:26 69° SSW
Cosmos 1805 4.3 22:07:50 10° NNW 22:11:28 37° W 22:12:24 32° SW
Cosmos 1470 3.1 22:08:07 10° N 22:11:51 49° ENE 22:11:51 49° ENE
STARLINK-1111 3.6 22:12:06 10° WNW 22:16:11 64° SW 22:16:11 64° SW
Cosmos 968 Rocket 3.7 22:11:14 10° NNW 22:16:19 58° ENE 22:17:31 46° ESE
Cosmos 1655 Rocket 4.4 22:15:01 38° SE 22:16:39 46° E 22:22:35 10° NNE
Cosmos 1455 Rocket 2.9 22:14:30 10° N 22:18:51 79° W 22:19:25 65° SSW
ATLAS 5 CENTAUR R/B 2.7 22:13:17 10° SSW 22:21:46 36° ENE 22:23:19 10° NE
STARLINK-1073 3.8 22:17:06 10° WNW 22:20:59 58° SW 22:20:59 58° SW
USA 238 DEB 3.9 22:15:39 10° NW 22:22:54 75° WSW 22:25:51 40° SSE
USA 238 3.9 22:15:45 10° NW 22:23:00 75° WSW 22:25:58 40° SSE
SL-8 R/B 3.6 22:19:05 10° WNW 22:23:51 66° SSW 22:24:13 63° S
SL-4 R/B 2.5 22:19:44 10° WSW 22:24:30 77° NNW 22:29:23 10° NE
Terra 2.5 22:23:15 36° SW 22:24:31 45° W 22:29:07 10° NNW
Cosmos 1842 4.0 22:24:07 40° WSW 22:24:52 46° W 22:28:38 10° N
Cosmos 1758 3.4 22:21:24 10° N 22:25:25 64° E 22:25:25 64° E
STARLINK-1121 4.0 22:22:06 10° WNW 22:25:46 51° WSW 22:25:46 51° WSW
STARLINK-1106 4.2 22:27:07 10° WNW 22:30:34 44° WSW 22:30:34 44° WSW
Cosmos 2266 Rocket 4.3 22:33:43 41° ESE 22:34:56 46° E 22:40:40 10° NNE
STARLINK-1112 4.5 22:32:06 10° WNW 22:35:19 39° WSW 22:35:19 39° WSW
STARLINK-1209 4.5 22:33:15 10° NW 22:36:13 34° NNE 22:36:13 34° NNE
Cosmos 1503 Rocket 4.2 22:31:12 10° NNW 22:36:30 64° ENE 22:37:35 51° ESE
Cosmos 2263 4.4 22:39:18 32° SW 22:41:55 67° WNW 22:47:32 10° NNE
Meteor 2-8 Rocket 4.4 22:36:22 10° N 22:42:32 73° E 22:44:07 51° SSE
Cosmos 1536 Rocket 3.4 22:45:44 88° ESE 22:45:44 88° E 22:50:07 10° N
Cosmos 1674 4.5 22:48:20 23° ENE 22:48:20 23° ENE 22:50:26 10° NNE
Cosmos 1271 Rocket 3.2 22:49:29 53° WNW 22:49:29 53° WNW 22:53:18 10° N
Cosmos 1242 Rocket 3.9 22:49:26 33° W 22:49:37 33° WNW 22:53:00 10° N
Spot 4 3.7 22:53:29 73° SSE 22:53:57 86° ENE 22:58:49 10° NNW
COSMOS 2455 2.7 22:52:50 56° S 22:54:03 73° ESE 23:00:05 10° NNE
Cosmos 1544 Rocket 4.3 22:51:26 10° NNW 22:55:33 42° W 22:55:47 42° WSW
Cosmos 1354 Rocket 3.9 22:50:30 10° NNW 22:55:50 83° ENE 22:56:35 67° SE
USA 215 4.1 22:52:57 12° E 22:58:47 47° NNE 23:05:01 10° NW
Cosmos 1707 3.3 22:59:44 52° WNW 22:59:44 52° WNW 23:03:20 10° N
Cosmos 1833 4.1 22:54:38 10° NNW 23:00:17 80° WSW 23:01:10 63° S
Helios 1A 4.5 23:01:35 27° ENE 23:01:47 27° ENE 23:05:18 10° N
ATLAS 3B CENTAUR R/B 4.4 23:01:01 10° WSW 23:05:10 18° SW 23:05:10 18° SW
ALOS 2 2.9 23:07:47 58° ENE 23:07:47 58° ENE 23:12:04 10° N
Cosmos 1726 2.8 23:04:24 10° N 23:07:20 53° N 23:07:20 53° N
COSMOS 2487 3.7 23:08:10 10° NNW 23:10:32 40° N 23:10:32 40° N
Meteor 2-5 Rocket 4.2 23:14:12 42° ESE 23:14:38 43° E 23:19:54 10° NNE
CENTAUR R/B 3.3 23:07:15 10° NW 23:15:23 66° WSW 23:18:18 44° S
Meteor 1-16 Rocket 3.9 23:11:42 10° N 23:17:13 89° W 23:17:49 72° S
Cosmos 1867 3.4 23:12:53 10° NW 23:18:21 76° WSW 23:18:45 71° SSW
ATLAS 3B R/B 2.8 23:11:45 10° NNW 23:18:36 73° NE 23:21:10 42° SE
Cosmos 1943 Rocket 4.5 23:16:12 10° W 23:20:09 19° NW 23:24:09 10° N
NOSS 3-2 (C) 4.4 23:13:13 10° NW 23:20:44 53° WSW 23:23:02 42° SSW
Cosmos 1606 Rocket 4.0 23:17:39 10° N 23:21:36 54° ENE 23:21:36 54° ENE
Cosmos 2098 Rocket 4.3 23:20:08 51° SSE 23:22:06 76° E 23:29:35 10° N
SeaSat 1 3.1 23:18:04 10° NNE 23:22:51 51° WNW 23:24:20 37° WSW
NOSS 3-4 (A) 4.1 23:23:52 20° WSW 23:27:51 49° NW 23:33:59 10° NNE
NOSS 3-4 (C) 4.1 23:24:02 20° WSW 23:27:57 50° NW 23:34:06 10° NNE
ATLAS CENTAUR R/B 4.4 23:27:52 10° NNE 23:28:22 10° NE 23:28:55 10° NE
RESURS DK-1 3.0 23:29:48 50° NE 23:29:48 50° NE 23:32:59 10° NNE
Cosmos 2084 3.9 23:33:36 57° ENE 23:33:36 57° ENE 23:37:16 10° NE
BREEZE-M R/B 3.7 23:25:04 10° SW 23:34:26 71° SSE 23:38:44 10° ENE
Cosmos 1626 3.8 23:36:00 28° NE 23:36:00 28° NE 23:38:16 10° NNE
Cosmos 2315 Rocket 3.9 23:29:33 10° N 23:35:47 89° WSW 23:36:59 61° S
Cosmos 2369 Rocket 4.4 23:32:25 10° W 23:36:33 20° NW 23:40:42 10° N
ATLAS CENTAUR R/B 2.8 23:35:42 31° W 23:36:42 35° NW 23:40:33 10° NNE
Okean 1-7 Rocket 4.3 23:37:39 45° ENE 23:37:39 45° ENE 23:41:34 10° NNE
Cosmos 1340 Rocket 3.9 23:34:58 10° NNW 23:38:06 38° WNW 23:38:06 38° WNW
Cosmos 2227 Rocket 4.1 23:35:14 10° N 23:39:49 24° NE 23:43:29 13° E
Nadezhda 2 Rocket 4.4 23:39:44 58° SE 23:40:44 69° E 23:46:51 10° NNE
Cosmos 1908 4.1 23:39:37 10° NNW 23:42:29 48° NNW 23:42:29 48° NNW
Cosmos 1953 4.0 23:43:41 10° NNW 23:46:23 25° WNW 23:46:23 25° WNW
Meteor 2-14 Rocket 4.4 23:52:47 60° SSE 23:53:49 73° E 23:59:56 10° NNE
STARLINK-1210 4.4 23:51:19 10° NW 23:55:21 48° NNE 23:55:42 47° NE
